Weather History for Pensacola NAS, FL

Change the Weather History Date:

Thursday, October 18, 2012

  Actual Average Record
Temperature  
Mean Temperature 72 °F -  
Max Temperature 80 °F 76 °F 84 °F (2006)
Min Temperature 63 °F 57 °F 46 °F (2001)
Cooling Degree Days 6    
Growing Degree Days 22 (Base 50)    
Moisture  
Dew Point 68 °F    
Average Humidity 86    
Maximum Humidity 100    
Minimum Humidity 72    
Precipitation  
Precipitation 0.23 in - - ()
Sea Level Pressure  
Sea Level Pressure 29.81 in    
Wind  
Wind Speed 11 mph (SW)    
Max Wind Speed 17 mph    
Max Gust Speed 24 mph    
Visibility 9 miles    
Events Fog , Rain    
Averages and records for this station are not official NWS values.
T = Trace of Precipitation, MM = Missing Value Source: NWS Daily Summary

Daily Weather History Graph

Daily Weather History Graph

Search for Another Location

Airport:

Trip Planner

Search our weather history database for the weather conditions in past years. The results will help you decide how hot, cold, wet, or windy it might be!

Date:

Astronomy

Oct. 18, 2012 Rise Set
Actual Time 6:53 AM CDT 6:14 PM CDT
Civil Twilight 6:29 AM CDT 6:38 PM CDT
Nautical Twilight 6:01 AM CDT 7:06 PM CDT
Astronomical Twilight 5:33 AM CDT 7:34 PM CDT
Moon 10:20 AM CDT (10/18) 9:02 PM CDT (10/18)
Length of Visible Light 12h 09m
Length of Day
11h 20m
Waxing Crescent, 14% of the Moon is Illuminated
Oct 18
Waxing Crescent
Oct 21
First Quarter
Oct 29
Full
Nov 6
Last Quarter
Nov 13
New

Hourly Weather History & Observations

Time (CDT) Temp. Dew Point Humidity Pressure Visibility Wind Dir Wind Speed Gust Speed Precip Events Conditions
12:56 AM 73.0 °F 64.9 °F 76% 29.81 in 10.0 mi South 12.7 mph - N/A   Partly Cloudy
1:56 AM 73.0 °F 66.9 °F 81% 29.81 in 10.0 mi SSW 11.5 mph - N/A   Scattered Clouds
2:11 AM 73.4 °F 66.2 °F 78% 29.79 in 10.0 mi South 9.2 mph - N/A   Mostly Cloudy
2:28 AM 73.4 °F 66.2 °F 78% 29.78 in 10.0 mi South 12.7 mph - N/A   Mostly Cloudy
2:56 AM 73.9 °F 66.0 °F 76% 29.78 in 10.0 mi SSW 11.5 mph - N/A   Partly Cloudy
3:56 AM 75.0 °F 68.0 °F 79% 29.78 in 10.0 mi South 11.5 mph - N/A   Mostly Cloudy
4:17 AM 75.2 °F 68.0 °F 78% 29.77 in 10.0 mi South 12.7 mph - N/A   Overcast
4:44 AM 75.2 °F 69.8 °F 83% 29.77 in 10.0 mi South 12.7 mph - N/A   Overcast
4:56 AM 75.9 °F 69.1 °F 79% 29.78 in 10.0 mi South 13.8 mph - N/A   Overcast
5:56 AM 75.9 °F 70.0 °F 82% 29.78 in 10.0 mi South 15.0 mph 20.7 mph 0.00 in   Mostly Cloudy
6:56 AM 77.0 °F 72.0 °F 84% 29.80 in 10.0 mi SSW 12.7 mph - N/A   Mostly Cloudy
7:56 AM 77.0 °F 72.0 °F 84% 29.78 in 10.0 mi SSW 16.1 mph - N/A   Overcast
8:49 AM 77.0 °F 73.4 °F 89% 29.78 in 10.0 mi SSW 17.3 mph 20.7 mph 0.00 in Rain Light Rain
8:56 AM 77.0 °F 73.0 °F 88% 29.79 in 10.0 mi SSW 13.8 mph - 0.00 in Rain Light Rain
9:56 AM 79.0 °F 75.0 °F 88% 29.80 in 10.0 mi SW 15.0 mph - 0.00 in Rain Light Rain
10:14 AM 77.0 °F 73.4 °F 89% 29.80 in 3.0 mi WSW 12.7 mph 23.0 mph 0.02 in Rain Light Rain
10:19 AM 75.2 °F 73.4 °F 94% 29.81 in 0.5 mi WNW 16.1 mph 24.2 mph 0.14 in Fog , Rain Heavy Rain
10:25 AM 73.4 °F 71.6 °F 94% 29.81 in 2.0 mi NW 10.4 mph 24.2 mph 0.22 in Rain Heavy Rain
10:28 AM 73.4 °F 71.6 °F 94% 29.80 in 4.0 mi NW 9.2 mph 20.7 mph 0.22 in Rain Rain
10:54 AM 69.8 °F 69.8 °F 100% 29.81 in 10.0 mi NNE 15.0 mph 21.9 mph 0.22 in Rain Light Rain
10:56 AM 70.0 °F 69.1 °F 97% 29.82 in 10.0 mi NNE 17.3 mph 20.7 mph 0.22 in Rain Light Rain
11:29 AM 69.8 °F 68.0 °F 94% 29.83 in 10.0 mi NE 11.5 mph - 0.00 in   Overcast
11:56 AM 71.1 °F 69.1 °F 93% 29.83 in 10.0 mi NNE 8.1 mph - 0.00 in   Mostly Cloudy
12:56 PM 75.0 °F 69.1 °F 82% 29.82 in 10.0 mi NE 11.5 mph - 0.00 in   Mostly Cloudy
1:56 PM 72.0 °F 69.1 °F 91% 29.82 in 5.0 mi Calm Calm - 0.01 in Rain Light Rain
2:56 PM 73.0 °F 68.0 °F 84% 29.82 in 10.0 mi Calm Calm - 0.00 in   Mostly Cloudy
3:56 PM 75.0 °F 69.1 °F 82% 29.81 in 10.0 mi NE 5.8 mph - N/A   Mostly Cloudy
4:56 PM 73.9 °F 68.0 °F 82% 29.81 in 10.0 mi Calm Calm - N/A   Mostly Cloudy
5:56 PM 72.0 °F 66.9 °F 84% 29.81 in 10.0 mi Calm Calm - N/A   Scattered Clouds
6:56 PM 68.0 °F 66.9 °F 96% 29.83 in 10.0 mi Calm Calm - N/A   Partly Cloudy
7:56 PM 66.9 °F 66.0 °F 97% 29.86 in 10.0 mi Calm Calm - N/A   Scattered Clouds
8:56 PM 64.9 °F 64.0 °F 97% 29.88 in 7.0 mi Calm Calm - N/A   Partly Cloudy
9:56 PM 66.0 °F 64.9 °F 96% 29.88 in 10.0 mi NNW 4.6 mph - N/A   Clear
10:56 PM 64.0 °F 55.9 °F 75% 29.88 in 10.0 mi North 4.6 mph - N/A   Clear
11:56 PM 63.0 °F 54.0 °F 72% 29.88 in 10.0 mi NNW 3.5 mph - N/A   Clear